[[{"header":{"parameterUnit":"m.s-1","parameterCategory":1,"la1":30.2991,"la2":30.254,"lo1":-89.0895,"lo2":-89.0444,"dy":0.0017,"dx":0.0017,"nx":28,"ny":28,"refTime":"2025-07-15T21:00:00:Z","depth":0,"parameterNumber":2,"parameterNumberName":"U-component_of_WINDS"},"data":[0,0,0,0,0,0,0,0,0,0,0,0,0,0,0,0,0,0,0,0,0,0,0,0,0,0,0,0,0,0,0,0,0,0,0,0,0,0,0,0,0,0,0,0,0,0,0,0,0,0,0,0,0,0,0,0,0,0,-1.2949,-1.2951,0,-1.3167,-1.3169,-1.3172,-1.3315,-1.3316,-1.3317,-1.3318,-1.3531,-1.3536,-1.3541,0,0,0,0,0,0,0,0,0,0,0,0,0,-1.2647,-1.2652,-1.2948,-1.2951,-1.2954,-1.3166,-1.3169,-1.3172,-1.3315,-1.3316,-1.3318,-1.3319,-1.353,-1.3535,-1.3541,0,0,0,0,0,0,0,0,0,0,0,0,0,-1.2812,-1.2653,-1.2948,-1.3051,-1.3063,-1.3166,-1.3169,-1.3173,-1.3315,-1.3316,-1.3318,-1.3319,-1.3528,-1.3535,-1.3542,-1.3556,0,0,-1.3564,-1.3567,0,0,0,0,0,0,0,0,-1.2803,-1.2823,-1.3033,-1.3044,-1.3057,-1.3216,-1.3141,-1.3301,-1.3315,-1.3219,-1.3318,-1.332,-1.3424,-1.344,-1.3477,-1.3566,-1.3575,-1.3564,-1.3569,-1.3572,-1.3574,0,0,0,0,0,0,0,-1.2791,-1.2815,-1.3034,-1.3036,-1.3051,-1.3084,-1.3109,-1.3172,-1.331,-1.3227,-1.3238,-1.3263,-1.3431,-1.347,-1.3483,-1.3579,-1.3564,-1.357,-1.3575,-1.3578,-1.3691,-1.369,0,0,0,0,0,0,-1.2765,-1.2804,-1.3028,-1.3041,-1.2931,-1.3088,-1.3116,-1.3163,-1.331,-1.3334,-1.3261,-1.3269,-1.3457,-1.3475,-1.3491,-1.3519,-1.3572,-1.3578,-1.3582,-1.3692,-1.3691,-1.3689,0,0,0,0,0,0,-1.2758,-1.2783,-1.3019,-1.2926,-1.2958,-1.3092,-1.3143,-1.3166,-1.3206,-1.3336,-1.336,-1.3276,-1.3459,-1.3481,-1.354,-1.3528,-1.3581,-1.3588,-1.3694,-1.3692,-1.369,-1.3572,0,0,0,0,0,0,-1.2748,-1.278,-1.2789,-1.2925,-1.2963,-1.3066,-1.3143,-1.317,-1.3219,-1.3231,-1.3357,-1.3379,-1.3462,-1.3529,-1.3547,-1.3539,-1.3594,-1.3695,-1.3693,-1.3691,-1.3577,-1.3566,-1.3557,0,0,0,0,0,-1.2737,-1.2744,-1.2788,-1.2814,-1.2977,-1.3065,-1.3086,-1.3185,-1.3218,-1.3226,-1.331,-1.3375,-1.3527,-1.3533,-1.3555,-1.3549,-1.3696,-1.3693,-1.3691,-1.3582,-1.3568,-1.3557,0,0,0,0,0,0,-1.2599,-1.2764,-1.2815,-1.2867,-1.2951,-1.3089,-1.3103,-1.3167,-1.3241,-1.3248,-1.3365,-1.3392,-1.3438,-1.35,-1.3504,-1.3571,-1.3619,-1.362,-1.3529,-1.3517,-1.3507,-1.349,-1.3599,0,0,0,0,0,-1.2575,-1.2636,-1.2776,-1.2808,-1.2848,-1.2968,-1.301,-1.3079,-1.317,-1.3205,-1.3293,-1.3375,-1.3442,-1.3483,-1.3552,-1.3588,-1.3616,-1.3594,-1.3584,-1.3574,-1.3573,-1.3597,-1.3589,-1.368,-1.368,-1.368,0,0,-1.2525,-1.2623,-1.2653,-1.2783,-1.2856,-1.2914,-1.2997,-1.3053,-1.3097,-1.3212,-1.3274,-1.3341,-1.3441,-1.3489,-1.3514,-1.3541,-1.3555,-1.3571,-1.3563,-1.3567,-1.3593,-1.3584,-1.3577,-1.3678,-1.3678,-1.3679,0,0,-1.2463,-1.2544,-1.2581,-1.2654,-1.2766,-1.2846,-1.2854,-1.2983,-1.3034,-1.3098,-1.3187,-1.3238,-1.3351,-1.3419,-1.3468,-1.3434,-1.3496,-1.3453,-1.3397,-1.3419,-1.3412,-1.3406,-1.3393,-1.3387,-1.3452,-1.3452,-1.3452,0,-1.2386,-1.248,-1.259,-1.2643,-1.2697,-1.2809,-1.2845,-1.2909,-1.3035,-1.3069,-1.3099,-1.3244,-1.3319,-1.3384,-1.3376,-1.3412,-1.3424,-1.3438,-1.3405,-1.34,-1.3396,-1.3385,-1.338,-1.3446,-1.3446,-1.3447,-1.3448,0,-1.2378,-1.2442,-1.2457,-1.2581,-1.2637,-1.268,-1.2795,-1.2838,-1.2902,-1.2978,-1.3042,-1.3137,-1.3227,-1.3248,-1.331,-1.3322,-1.3335,-1.3383,-1.3434,-1.338,-1.3371,-1.3368,-1.3437,-1.3439,-1.3441,-1.3443,0,0,-1.2233,-1.2421,-1.2424,-1.2482,-1.2615,-1.2664,-1.2713,-1.2805,-1.2838,-1.2922,-1.2964,-1.3058,-1.3105,-1.316,-1.3231,-1.325,-1.3217,-1.3297,-1.3301,-1.3278,-1.3235,-1.3197,-1.3191,-1.326,-1.326,-1.326,-1.3227,0,-1.219,-1.2288,-1.2389,-1.2449,-1.2508,-1.2616,-1.2658,-1.2743,-1.2815,-1.2874,-1.2953,-1.3018,-1.3075,-1.3109,-1.3133,-1.3216,-1.321,-1.322,-1.3298,-1.3299,-1.3268,-1.3187,-1.3146,-1.311,-1.3224,-1.3224,-1.3223,0,-1.2153,-1.2236,-1.2303,-1.2432,-1.246,-1.2497,-1.259,-1.2646,-1.2743,-1.2795,-1.2858,-1.2935,-1.2989,-1.3035,-1.311,-1.3115,-1.3153,-1.3198,-1.3199,-1.3209,-1.3256,-1.3192,-1.3101,-1.3095,-1.3219,-1.322,-1.322,0,-1.2039,-1.2167,-1.2225,-1.2271,-1.2423,-1.2446,-1.2509,-1.2609,-1.2658,-1.2738,-1.2771,-1.2855,-1.29,-1.2962,-1.3059,-1.3083,-1.3124,-1.3177,-1.3166,-1.3163,-1.3168,-1.3166,-1.308,-1.3194,-1.3194,-1.3194,-1.3194,0,-1.198,-1.2016,-1.2176,-1.221,-1.2253,-1.2369,-1.2408,-1.2481,-1.2569,-1.2618,-1.2716,-1.2758,-1.2885,-1.2942,-1.3018,-1.3068,-1.3088,-1.3129,-1.3149,-1.312,-1.3114,-1.3145,-1.3149,-1.3193,-1.3193,-1.3194,-1.3194,0,-1.1859,-1.1968,-1.2037,-1.2177,-1.2213,-1.2238,-1.2356,-1.2393,-1.2472,-1.2533,-1.2553,-1.2677,-1.275,-1.2854,-1.2957,-1.3008,-1.3047,-1.3079,-1.3014,-1.3026,-1.3008,-1.3008,-1.2938,-1.2934,-1.3051,-1.305,-1.3049,0,-1.1813,-1.1844,-1.1989,-1.2031,-1.2092,-1.2157,-1.2209,-1.2324,-1.2374,-1.2489,-1.251,-1.2592,-1.2663,-1.2774,-1.2871,-1.2951,-1.2984,-1.2955,-1.2997,-1.2967,-1.2983,-1.2979,-1.2982,-1.2943,-1.2941,-1.294,-1.2939,0,-1.172,-1.1773,-1.1846,-1.1938,-1.1998,-1.2075,-1.2156,-1.2184,-1.2316,-1.2366,-1.2444,-1.2499,-1.2607,-1.2686,-1.2779,-1.2842,-1.2911,-1.2925,-1.2927,-1.2896,-1.2858,-1.2877,-1.2985,-1.2926,-1.2927,-1.2928,-1.2929,-1.2929,-1.1635,-1.1668,-1.1775,-1.1853,-1.1928,-1.2002,-1.2043,-1.213,-1.2198,-1.2297,-1.2361,-1.2435,-1.2532,-1.2666,-1.2725,-1.2783,-1.2812,-1.2814,-1.2814,-1.2812,-1.2802,-1.285,-1.2801,-1.2801,-1.2802,-1.2802,-1.2803,0,-1.1546,-1.1622,-1.1692,-1.1805,-1.1866,-1.1931,-1.2025,-1.207,-1.2136,-1.2223,-1.2292,-1.2381,-1.2459,-1.2563,-1.2648,-1.2674,-1.2708,-1.2692,-1.269,-1.2703,-1.2772,-1.2762,-1.2663,-1.2663,-1.2663,-1.2663,-1.2663,-1.2663,-1.1507,-1.1566,-1.1632,-1.1728,-1.1803,-1.188,-1.1928,-1.1996,-1.2066,-1.2163,-1.2229,-1.2299,-1.2392,-1.2485,-1.2558,-1.2587,-1.2613,-1.2587,-1.2624,-1.2686,-1.2699,-1.271,-1.2702,-1.2592,-1.2592,-1.2551,-1.2551,-1.255]},{"header":{"parameterUnit":"m.s-1","parameterCategory":1,"la1":30.2991,"la2":30.254,"lo1":-89.0895,"lo2":-89.0444,"dy":0.0017,"dx":0.0017,"nx":28,"ny":28,"refTime":"2025-07-15T21:00:00:Z","depth":0,"parameterNumber":3,"parameterNumberName":"V-component_of_WINDS"},"data":[0,0,0,0,0,0,0,0,0,0,0,0,0,0,0,0,0,0,0,0,0,0,0,0,0,0,0,0,0,0,0,0,0,0,0,0,0,0,0,0,0,0,0,0,0,0,0,0,0,0,0,0,0,0,0,0,0,0,1.8636,1.864,0,1.8989,1.8993,1.8997,1.9156,1.9155,1.9155,1.9154,1.951,1.9519,1.9529,0,0,0,0,0,0,0,0,0,0,0,0,0,1.8091,1.81,1.8636,1.864,1.8645,1.8989,1.8994,1.8998,1.9156,1.9155,1.9155,1.9154,1.9506,1.9518,1.953,0,0,0,0,0,0,0,0,0,0,0,0,0,1.8374,1.8103,1.8635,1.8765,1.878,1.8988,1.8994,1.9,1.9156,1.9155,1.9155,1.9154,1.9502,1.9517,1.9531,1.9635,0,0,1.9576,1.9583,0,0,0,0,0,0,0,0,1.8358,1.8394,1.8741,1.8756,1.8774,1.9028,1.8932,1.9212,1.9156,1.9013,1.9154,1.9154,1.9349,1.9377,1.9444,1.9651,1.9667,1.9578,1.9587,1.9593,1.9597,0,0,0,0,0,0,0,1.8338,1.838,1.8776,1.8746,1.8766,1.8803,1.8843,1.8986,1.918,1.9025,1.9038,1.9078,1.9358,1.9429,1.9454,1.9672,1.9577,1.959,1.96,1.9605,1.9984,1.9985,0,0,0,0,0,0,1.8298,1.8362,1.8764,1.8786,1.856,1.8814,1.8858,1.8947,1.9179,1.9214,1.9078,1.9084,1.9405,1.9436,1.9467,1.9605,1.9593,1.9607,1.9615,1.9982,1.9984,1.9985,0,0,0,0,0,0,1.8286,1.8333,1.875,1.8578,1.8634,1.8824,1.8922,1.8954,1.9026,1.9219,1.9253,1.9116,1.9405,1.9446,1.9593,1.9619,1.9613,1.9627,1.9981,1.9983,1.9985,1.988,0,0,0,0,0,0,1.827,1.8327,1.837,1.8578,1.8643,1.8871,1.8924,1.8961,1.9052,1.9063,1.9263,1.9296,1.9408,1.957,1.9607,1.964,1.9638,1.9979,1.9982,1.9984,1.9882,1.9878,1.9875,0,0,0,0,0,1.825,1.8324,1.8371,1.8419,1.87,1.8873,1.891,1.9039,1.9053,1.9097,1.9221,1.929,1.961,1.9584,1.9627,1.9664,1.9978,1.9981,1.9984,1.9884,1.9879,1.9875,0,0,0,0,0,0,1.8111,1.8354,1.8408,1.8553,1.8691,1.8899,1.8958,1.9029,1.9165,1.9169,1.9322,1.9366,1.9499,1.9596,1.9563,1.9777,1.98,1.9812,1.9709,1.9706,1.9703,1.9677,1.9651,0,0,0,0,0,1.8098,1.822,1.8425,1.8532,1.8599,1.8766,1.8846,1.8934,1.9083,1.9141,1.9276,1.9416,1.9549,1.9633,1.9765,1.9897,1.9943,1.9944,1.994,1.9936,1.9944,2.0023,2.0026,1.9994,1.9994,1.9994,0,0,1.8071,1.8219,1.8286,1.8508,1.8626,1.8748,1.8814,1.894,1.9031,1.916,1.9308,1.9411,1.9578,1.9718,1.9786,1.9803,1.9963,1.9939,1.9935,1.9946,2.0026,2.0028,2.0031,1.9996,1.9996,1.9995,0,0,1.8085,1.8208,1.8313,1.843,1.8609,1.872,1.8744,1.8942,1.9017,1.9169,1.9268,1.9378,1.9603,1.9718,1.9805,1.9864,1.9933,1.9903,1.9884,1.9958,1.9961,1.9964,1.9986,1.9992,1.991,1.991,1.991,0,1.8028,1.8218,1.8357,1.8479,1.8573,1.8698,1.8805,1.891,1.9121,1.9183,1.9199,1.9486,1.9606,1.9776,1.979,1.9857,1.989,1.9881,1.995,1.9954,1.9959,1.9982,1.9989,1.9905,1.9906,1.9906,1.9907,0,1.814,1.827,1.8333,1.8537,1.8639,1.8751,1.8906,1.8992,1.9071,1.918,1.9332,1.9482,1.9647,1.9694,1.9771,1.9875,1.988,1.992,1.9947,1.9955,1.9979,1.9989,1.9898,1.99,1.9902,1.9903,0,0,1.8076,1.8358,1.8379,1.8474,1.868,1.8782,1.89,1.9065,1.9137,1.9278,1.9381,1.9569,1.9609,1.9708,1.9799,1.9864,1.9903,1.9898,1.9904,1.9895,2.0028,1.9997,2.0005,1.995,1.9952,1.9954,2.0015,0,1.8119,1.834,1.8469,1.8636,1.8758,1.8878,1.8982,1.9118,1.9223,1.934,1.9455,1.9587,1.9629,1.969,1.976,1.9883,1.9932,1.9881,2.0046,2.0051,2.0002,2.0018,1.9985,2.0035,2.0025,2.0027,2.0028,0,1.8199,1.8342,1.8521,1.8716,1.8772,1.8863,1.9025,1.9136,1.9293,1.9365,1.9477,1.9569,1.9697,1.9713,1.9892,1.9854,1.9929,2.0,2.0005,2.0026,2.004,2.004,2.0055,2.0062,2.0044,2.0042,2.0041,0,1.8136,1.8372,1.8511,1.8589,1.8819,1.888,1.8978,1.9136,1.9227,1.9368,1.9429,1.9581,1.9664,1.978,1.991,1.9909,2.0077,2.0103,2.014,2.0136,2.017,2.0166,2.0198,2.0216,2.0216,2.0216,2.0216,0,1.8172,1.8277,1.8487,1.8572,1.8694,1.884,1.8956,1.9063,1.9203,1.931,1.9422,1.952,1.9686,1.9804,1.9906,2.004,2.0076,2.0137,2.0163,2.0128,2.012,2.018,2.018,2.0218,2.0217,2.0217,2.0217,0,1.8122,1.8267,1.8426,1.8632,1.8686,1.8767,1.8943,1.9029,1.914,1.9275,1.9315,1.9488,1.9633,1.9775,1.9968,2.0037,2.017,2.0204,2.0118,2.0133,2.0162,2.0158,2.0234,2.0252,2.0255,2.0255,2.0255,0,1.8135,1.822,1.8436,1.8518,1.8614,1.8743,1.8838,1.8985,1.9079,1.9266,1.933,1.9484,1.9615,1.9841,1.9983,2.0132,2.0172,2.0188,2.0194,2.0157,2.0174,2.0167,2.0177,2.0184,2.0183,2.0183,2.0182,0,1.8145,1.8213,1.8346,1.8505,1.8616,1.8748,1.8883,1.8942,1.9115,1.9214,1.9366,1.9468,1.9667,1.9819,1.9985,2.0085,2.0162,2.0179,2.0196,2.0161,2.0108,2.0139,2.0109,2.0177,2.0177,2.0178,2.0178,2.0178,1.8129,1.821,1.8376,1.8521,1.8639,1.8763,1.8856,1.8979,1.9109,1.9285,1.9363,1.9515,1.9672,1.9903,2.0002,2.0122,2.0142,2.0165,2.0172,2.0175,2.0168,2.0088,2.0153,2.0153,2.0154,2.0154,2.0154,0,1.8145,1.8258,1.839,1.8578,1.8692,1.8757,1.891,1.9001,1.9135,1.9275,1.9403,1.9577,1.9725,1.9879,2.0036,2.0103,2.0142,2.0139,2.0136,2.0158,2.0142,2.0112,2.0104,2.0104,2.0104,2.0104,2.0104,2.0104,1.8167,1.8309,1.8396,1.8598,1.871,1.8862,1.8944,1.9059,1.9173,1.9363,1.9487,1.9588,1.9734,1.9903,2.0041,2.0083,2.0135,2.0122,2.0173,2.0155,2.0159,2.0162,2.0135,2.0132,2.0132,2.018,2.0181,2.0181]}]]